GALAXY 28 (G-28)

Last updated on Tue Sep 16 2025 00:02:46 GMT+0000 (Coordinated Universal Time)

1 28702U 05022A 25258.56698255 -.00000204 00000+0 00000+0 0 9991 2 28702 2.5867 82.3642 0001908 84.9740 302.8459 1.00272377 49232
UTC large
Height (km)
Speed (km/s)
/
Latitude / Longitude
Inclination (degrees)
Orbital Period (minutes)
Azimuth
Elevation
Range (km)
Doppler Factor

Next 0 passes for location: London (51.5072 / 0.1276)

Sorry there are no passes over London.